COSMOS 249 DEB, 3911

Orbit data source: Space-Track

COSMOS 249 DEB, 3911 is space debris in LEO originally from a launch on Sun, 20 Oct 1968 UTC launched from the Tyuratam Missile And Space Complex (TTMTR). Debris objects in space refer to the collection of defunct objects orbiting the Earth. Examples of debris include non-operational satellites, rocket bodies, and fragments generated from explosions, collisions, or faulty payload assembly.

Loading next visibility...
Identifier
3911, 1968-091BP
Orbit
LEO
Country
Flag of CISCIS
Related business
Manufacturer
Unknown
Mission
Spacecraft
Bus & Motor
Unknown
Mass
Unknown
Launch date (UTC)
1968-10-20 (57 years ago)
Launch vehicle
Unknown
Launch site
Tyuratam Missile And Space Complex (TTMTR)
Object type
Payload
Rocket body
Debris
Shape & HBR
Unknown shape, 0.1 m
Radar Cross Section
Small (<0.1 m²)

Expand to show TLE details & history
Last TLE update: 13 hours ago

TLE from 13 hours ago
0 COSMOS 249 DEB
1 03911U 68091BP  25340.74417631  .00008947  00000-0  23148-2 0  9993
2 03911  62.9208 243.7337 0793130  64.1702 303.8930 13.41297912641494
Epoch: 2025-12-06T17:51Z
TLE epoch observation values (Epoch: 2025-12-06T17:51:36.833Z)
Latitude
0.00002°
Longitude
-99.93728°
Altitude
809.801 km
Speed
7.595 km/s
True Right ascension
16h 14m 56s
True Declination
0° 00' 00"
Sunlit
Object was in daylight at epoch
Visualization orbit readout
Latitude
Unknown
Longitude
Unknown
Altitude
Unknown
Speed
Unknown
Apparent Right ascension
Unknown
Apparent Declination
Unknown
Sunlit
N/A
Visualization observer readout
Local Sidereal Time
05:06:14
Azimuth
Unknown
Elevation
Unknown
Doppler factor
Unknown
Orbital elements
Apogee altitude
1,696.707 km
Perigee altitude
509.952 km
Semi-major axis
7,481.466 km
Eccentricity
0.07931
Inclination
62.9208°
RAAN
243.7337°
Arg. of periapsis
64.1702°
True anomaly
295.93418°
Mean anomaly
303.893°
Eccentric anomaly
299.95577°
Mean motion
3.354 °/min
Orbital period
107.33 mins
BSTAR
0.0023148
Loading maneuver chart data...
Computing Atmospheric mass density...

Documentation

Showing up to 5 results
|